星链-34168 (STARLINK-34168)

导读

STARLINK-34168是美国太空探索技术公司(SpaceX)发射的星链卫星,于2025年5月21日发射入轨,隶属于星链星座项目。星链系统旨在构建全球卫星互联网通信网络,为全球不同地区提供高速互联网接入服务,该卫星承担增强网络覆盖容量与服务稳定性的任务。

Basic Information
目录编号:
64079
目录名称:
STARLINK-34168
国际标识:
2025-107R
轨道中心:
EARTH
卫星名称:
星链-34168
卫星全名:
星链-34168 (STARLINK-34168)
卫星状态:
在轨 (已飞行471 天)
发射日期:
2025-05-21 UTC
国别 :
美国 (US)
星等 :
--
Orbit Information
数据来源 国际轨道数据 AOE轨道数据
星历时间 2026-09-04T11:04:06+0800
6小时前
查看轨道信息
2026-09-02T08:00:00+0800
2天前
查看轨道信息
半长轴 6861.182km 6861.155km
偏心率 0.0001221 0.0000902
轨道倾角 43.002° 43.003°
近地点辐角 253.953° 305.096°
升交点赤经 273.527° 285.547°
平近点角 106.119° 219.637°
近地点 482.207km 482.399km
远地点 483.883km 483.637km
周期 94.267分钟 94.266分钟
每日圈数 15.275816 15.275905
Detailed Information
固有亮度:
5
最大亮度:
2.5
卫星平台:
Starlink V1.0
覆盖范围:
全球
运营商:
太空探索技术公司
运营商所在国:
美国
制造商(研发单位):
太空探索技术公司
制造商所在国:
美国
使用方式:
暂无
Satellite Introduction
Starlink 计划是 SpaceX 推出的全球卫星互联网项目,通过发射低轨道卫星,为全球尤其是偏远地区提供高速、低延迟的互联网服务。自 2019 年起,Starlink 已部署数千颗卫星,旨在缩小全球数字鸿沟,推动互联网普及。该项目还为军事、航空等行业提供通信支持,带来广泛经济效益。
2D Orbit Map
3D Orbit Map
Orbit Altitude Analysis Chart
Orbit Inclination Analysis Chart
Orbit Comprehensive Analysis Chart
View Comprehensive Chart